Miscellaneous Local Product
Issued by NWS Hastings, NE

Home | Current Version | Previous Version | Text Only | Print | Product List | Glossary On
Versions: 1 2 3 4 5 6 7 8 9 10 11 12 13 14 15 16 17 18 19 20 21 22 23 24 25 26 27 28 29 30 31 32 33 34 35 36 37 38 39 40 41 42 43 44 45 46 47 48 49 50
000
AXUS43 KGID 010302
MISGRI

GID CWA HOURLY WEATHER ROUNDUP
NATIONAL WEATHER SERVICE HASTINGS NE
1000 PM CDT WED AUG 31 2016

NOTE: "FAIR" INDICATES FEW OR NO CLOUDS BELOW 12,000 FEET WITH NO
SIGNIFICANT WEATHER AND/OR OBSTRUCTIONS TO VISIBILITY.

...SOUTH CENTRAL NEBRASKA...

CITY           SKY/WX    TMP DP  RH WIND       PRES   REMARKS
GRAND ISLAND   CLEAR     63  59  87 E3        30.22R
HASTINGS       CLEAR     65  58  78 E5        30.21R
KEARNEY        CLEAR     63  57  82 E6        30.21R
ORD            CLEAR     64  58  80 CALM      30.21R
YORK           CLEAR     63  59  88 NE5       30.21R
AURORA         CLEAR     63  61  94 NE6       30.21R
LEXINGTON      CLEAR     69  61  75 E7        30.22R
HOLDREGE       CLEAR     64  57  79 E7        30.21S
HEBRON         CLEAR     63  61  94 CALM      30.18R

...NEBRASKA PANHANDLE...

CITY           SKY/WX    TMP DP  RH WIND       PRES   REMARKS
CHADRON        CLEAR     71  55  56 SE10      30.18R
ALLIANCE       CLEAR     67  59  75 SE16      30.22R
SCOTTSBLUFF    CLEAR     67  59  75 E8        30.22R
SIDNEY         CLEAR     64  59  83 SE10      30.27R

...WESTERN AND NORTH CENTRAL NEBRASKA...

CITY           SKY/WX    TMP DP  RH WIND       PRES   REMARKS
VALENTINE      CLEAR     72  55  55 SE14      30.20R
AINSWORTH      CLEAR     68  56  67 SE9       30.23R
ONEILL         CLEAR     68  58  68 SE6       30.23R
BROKEN BOW     CLEAR     64  59  83 SE5       30.23R
IMPERIAL       CLEAR     65  62  90 SE7       30.23R
NORTH PLATTE   CLEAR     63  60  90 E5        30.23R
MCCOOK         PTCLDY    66  62  87 SE5       30.21R

...EASTERN NEBRASKA...

CITY           SKY/WX    TMP DP  RH WIND       PRES   REMARKS
NORFOLK        CLEAR     63  59  87 SE3       30.20R
SO SIOUX CITY  CLEAR     69  63  81 E3        30.19R
TEKAMAH        CLEAR     64  61  90 N3        30.18R
COLUMBUS       CLEAR     63  54  72 CALM      30.21R
ALBION         CLOUDY    65  58  79 CALM      30.22R
OMAHA EPPLEY   CLEAR     66  61  84 NW3       30.17R
OFFUTT AFB     PTCLDY    63  63 100 NE3       30.16R
MILLARD        CLEAR    N/A N/A N/A CALM      30.18R
LINCOLN        CLEAR     66  59  78 N3        30.19R
NEBRASKA CITY  CLEAR     65  61  85 NE5       30.17R
BEATRICE       CLEAR     64  61  92 NE3       30.17R
FALLS CITY     CLEAR     69  63  81 N3        30.14R

...NORTHERN KANSAS...

CITY           SKY/WX    TMP DP  RH WIND       PRES   REMARKS
GOODLAND       PTCLDY    63  61  93 E6        30.24R
HILL CITY      PTCLDY    65  63  93 NE3       30.20R
NORTON         CLEAR     68  63  83 CALM      30.20R
SMITH CENTER   CLEAR     64  61  88 CALM      30.19R
BELOIT         CLEAR     63  57  82 NE5       30.16R
HAYS           CLEAR     68  57  68 CALM      30.18S
RUSSELL        CLEAR     68  67  96 NE5       30.16R
CONCORDIA      CLEAR     67  59  75 NE3       30.17R
SALINA         PTCLDY    73  68  84 NE7       30.15R
TOPEKA         CLEAR     68  61  78 N3        30.12R



USA.gov is the U.S. government's official web portal to all federal, state and local government web resources and services.